2023/06/18 00:00:00, 0.2,17.1
2023/06/18 00:10:00, 0.2,17.0
2023/06/18 00:20:00, 0.2,17.3
2023/06/18 00:30:00, 0.2,17.3
2023/06/18 00:40:00, 0.2,16.8
2023/06/18 00:50:00, 0.2,16.8
2023/06/18 01:00:00, 0.2,16.8
2023/06/18 01:10:00, 0.2,16.7
2023/06/18 01:20:00, 0.2,16.7
2023/06/18 01:30:00, 0.2,16.9
2023/06/18 01:40:00, 0.2,16.6
2023/06/18 01:50:00, 0.2,16.4
2023/06/18 02:00:00, 0.2,16.3
2023/06/18 02:10:00, 0.3,16.3
2023/06/18 02:20:00, 0.2,15.9
2023/06/18 02:30:00, 0.2,14.6
2023/06/18 02:40:00, 0.2,15.9
2023/06/18 02:50:00, 0.2,16.0
2023/06/18 03:00:00, 0.2,15.6
2023/06/18 03:10:00, 0.2,15.9
2023/06/18 03:20:00, 0.2,16.0
2023/06/18 03:30:00, 0.2,15.9
2023/06/18 03:40:00, 0.2,15.9
2023/06/18 03:50:00, 0.2,15.4
2023/06/18 04:00:00, 0.2,15.5
2023/06/18 04:10:00, 0.3,15.6
2023/06/18 04:20:00, 0.3,15.4
2023/06/18 04:30:00, 0.3,15.6
2023/06/18 04:40:00, 0.3,15.8
2023/06/18 04:50:00, 0.3,15.8
2023/06/18 05:00:00, 0.3,16.0
2023/06/18 05:10:00, 0.2,15.6
2023/06/18 05:20:00, 0.2,15.5
2023/06/18 05:30:00, 0.2,15.8
2023/06/18 05:40:00, 0.2,15.7
2023/06/18 05:50:00, 0.3,15.9
2023/06/18 06:00:00, 0.3,15.7
2023/06/18 06:10:00, 0.3,16.1
2023/06/18 06:20:00, 0.3,15.9
2023/06/18 06:30:00, 0.3,15.7
2023/06/18 06:40:00, 0.2,15.9
2023/06/18 06:50:00, 0.3,16.2
2023/06/18 07:00:00, 0.3,16.3
2023/06/18 07:10:00, 0.3,16.7
2023/06/18 07:20:00, 0.3,16.6
2023/06/18 07:30:00, 0.4,16.8
2023/06/18 07:40:00, 0.4,17.1
2023/06/18 07:50:00, 0.4,17.1
2023/06/18 08:00:00, 0.3,17.1
2023/06/18 08:10:00, 0.3,17.2
2023/06/18 08:20:00, 0.3,17.4
2023/06/18 08:30:00, 0.4,18.3
2023/06/18 08:40:00, 0.4,18.8
2023/06/18 08:50:00, 0.4,18.9
2023/06/18 09:00:00, 0.4,19.3
2023/06/18 09:10:00, 0.4,20.3
2023/06/18 09:20:00, 0.4,21.1
2023/06/18 09:30:00, 0.3,21.4
2023/06/18 09:40:00, 0.3,22.0
2023/06/18 09:50:00, 0.3,22.4
2023/06/18 10:00:00, 0.3,22.4
2023/06/18 10:10:00, 0.3,22.9
2023/06/18 10:20:00, 0.5,23.2
2023/06/18 10:30:00, 0.5,23.4
2023/06/18 10:40:00, 0.6,23.7
2023/06/18 10:50:00, 0.5,23.5
2023/06/18 11:00:00, 0.5,23.1
2023/06/18 11:10:00, 0.5,23.8
2023/06/18 11:20:00, 0.6,24.0
2023/06/18 11:30:00, 0.3,24.5
2023/06/18 11:40:00, 0.4,24.2
2023/06/18 11:50:00, 0.7,24.4
2023/06/18 12:00:00, 0.8,24.7
2023/06/18 12:10:00, 0.8,25.2
2023/06/18 12:20:00, 1.0,25.9
2023/06/18 12:30:00, 0.9,26.1
2023/06/18 12:40:00, 0.9,26.3
2023/06/18 12:50:00, 1.1,27.2
2023/06/18 13:00:00, 1.0,27.5
2023/06/18 13:10:00, 1.1,27.4
2023/06/18 13:20:00, 1.0,27.2
2023/06/18 13:30:00, 1.0,27.3
2023/06/18 13:40:00, 0.9,27.5
2023/06/18 13:50:00, 0.8,27.4
2023/06/18 14:00:00, 0.5,27.0
2023/06/18 14:10:00, 0.4,26.8
2023/06/18 14:20:00, 0.5,26.6
2023/06/18 14:30:00, 0.5,26.1
2023/06/18 14:40:00, 0.6,26.4
2023/06/18 14:50:00, 0.6,26.6
2023/06/18 15:00:00, 0.5,24.8
2023/06/18 15:10:00, 0.5,25.5
2023/06/18 15:20:00, 0.6,26.0
2023/06/18 15:30:00, 0.7,26.1
2023/06/18 15:40:00, 0.8,26.7
2023/06/18 15:50:00, 0.4,25.0
2023/06/18 16:00:00, 0.2,24.5
2023/06/18 16:10:00, 0.3,25.0
2023/06/18 16:20:00, 0.1,24.5
2023/06/18 16:30:00, 0.2,24.0
2023/06/18 16:40:00, 0.4,23.3
2023/06/18 16:50:00, 0.3,23.1
2023/06/18 17:00:00, 0.1,22.9
2023/06/18 17:10:00, 0.1,22.6
2023/06/18 17:20:00, 0.0,22.1
2023/06/18 17:30:00, 0.0,21.6
2023/06/18 17:40:00, 0.0,21.2
2023/06/18 17:50:00, 0.1,20.9
2023/06/18 18:00:00, 0.2,20.8
2023/06/18 18:10:00, 0.2,20.6
2023/06/18 18:20:00, 0.2,20.6
2023/06/18 18:30:00, 0.2,20.4
2023/06/18 18:40:00, 0.2,20.3
2023/06/18 18:50:00, 0.1,20.0
2023/06/18 19:00:00, 0.1,19.5
2023/06/18 19:10:00, 0.1,19.0
2023/06/18 19:20:00, 0.0,18.7
2023/06/18 19:30:00, 0.0,18.4
2023/06/18 19:40:00, 0.0,17.9
2023/06/18 19:50:00, 0.0,17.5
2023/06/18 20:00:00, 0.1,17.6
2023/06/18 20:10:00, 0.1,17.5
2023/06/18 20:20:00, 0.1,17.5
2023/06/18 20:30:00, 0.1,17.3
2023/06/18 20:40:00, 0.1,17.1
2023/06/18 20:50:00, 0.1,17.4
2023/06/18 21:00:00, 0.1,17.1
2023/06/18 21:10:00, 0.1,16.7
2023/06/18 21:20:00, 0.1,17.1
2023/06/18 21:30:00, 0.1,16.8
2023/06/18 21:40:00, 0.1,17.1
2023/06/18 21:50:00, 0.1,16.8
2023/06/18 22:00:00, 0.1,16.8
2023/06/18 22:10:00, 0.1,16.8
2023/06/18 22:20:00, 0.1,16.8
2023/06/18 22:30:00, 0.1,16.8
2023/06/18 22:40:00, 0.1,16.7
2023/06/18 22:50:00, 0.1,16.5
2023/06/18 23:00:00, 0.2,16.4
2023/06/18 23:10:00, 0.1,16.4
2023/06/18 23:20:00, 0.1,15.9
2023/06/18 23:30:00, 0.1,16.0
2023/06/18 23:40:00, 0.1,15.7
2023/06/18 23:50:00, 0.1,15.8
